Regional Weather Roundup
Issued by NWS Cleveland, OH

Home | Current Version | Previous Version | Graphics & Text | Print | Product List | Glossary On
Versions: 1 2 3 4 5 6 7 8 9 10 11 12 13 14 15 16 17 18 19 20 21 22 23 24 25 26 27 28 29 30 31 32 33 34 35 36 37 38 39 40 41 42 43 44 45 46 47 48 49 50
000
ASUS41 KCLE 311302
RWRCLE
OHIO REGIONAL WEATHER ROUNDUP
NATIONAL WEATHER SERVICE CLEVELAND, OH
800 AM EST SAT JAN 31 2015

NOTE: "FAIR" INDICATES FEW OR NO CLOUDS BELOW 12,000 FEET WITH NO
SIGNIFICANT WEATHER AND/OR OBSTRUCTIONS TO VISIBILITY.

OHZ001>008-015>018-024>027-034-035-043-044-311400-
   NORTHWEST OHIO

CITY           SKY/WX    TMP DP  RH WIND       PRES   REMARKS
DEFIANCE       MOCLDY    18  13  80 S6        30.32F WCI  10
FINDLAY        CLOUDY    16  10  77 S9        30.31F WCI   4
TOLEDO EXPRESS CLOUDY    17  13  84 SW6       30.31F WCI   9
TOLEDO EXEC    CLOUDY    18  12  77 SW9       30.32F WCI   7
LIMA           CLOUDY    18  11  74 S8        30.32R WCI   8
$$

OHZ009>014-019>023-028>033-038-089-311400-
   NORTHEAST OHIO

CITY           SKY/WX    TMP DP  RH WIND       PRES   REMARKS
CLE-HOPKINS    MOCLDY    12   6  77 SW8       30.36R WCI   0
CLE-LAKEFRONT  MOCLDY    13   6  74 S8        30.34S WCI   2
CUY CO. ARPT   MOCLDY    14   9  79 S8        30.34R WCI   3
LORAIN-ELYRIA  PTCLDY     8   4  83 S6        30.34R WCI  -2
ASHTABULA      CLOUDY     7   3  84 S5        30.34S WCI  -2
AKRON-CANTON   PTCLDY     6   1  80 S6        30.32R WCI  -4
WOOSTER        PTCLDY     6   2  83 SW5       30.33R WCI  -3
MANSFIELD      MOCLDY     9   6  88 S8        30.30S WCI  -3
YOUNGSTOWN     MOCLDY     7   2  80 S3        30.31S
$$

OHZ042-051>053-060>062-070>072-077>081-311400-
  SOUTHWEST OHIO

CITY           SKY/WX    TMP DP  RH WIND       PRES   REMARKS
CINC-COVINGTON MOCLDY    16  12  84 S5        30.37R WCI   9
CINC-LUNKEN    CLEAR     14  11  87 CALM      30.42R
HAMILTON       CLEAR     14  11  87 CALM      30.40R
DAYTON         PTCLDY    19  13  77 S8        30.35S WCI   9
WRIGHT-PAT AFB CLEAR     13  10  88 SE1       30.37R
DAYTON GENERAL CLEAR     16  12  84 S3        30.35R
WILMINGTON     CLEAR     16  11  80 S6        30.35S WCI   7
$$

OHZ036-037-039>041-045>050-054>059-063>069-073>076-082>088-311400-
  CENTRAL AND SOUTHEAST OHIO

CITY           SKY/WX    TMP DP  RH WIND       PRES   REMARKS
COLUMBUS       PTCLDY    12   8  84 CALM      30.38R
OSU AIRPORT    CLEAR     13   9  84 S3        30.36R
BOLTON FIELD   CLEAR     12   9  85 S3        30.37
RICKENBACK AFB NOT AVBL
NEWARK         PTCLDY     6   1  80 CALM      30.37R
MARION         CLEAR      8   4  83 S7        30.35R WCI  -3
LANCASTER      CLEAR      9   4  80 CALM      30.38R
ZANESVILLE     PTCLDY     4   0  83 CALM      30.37S
NEW PHILLY     MOCLDY     4  -1  80 SE3       30.37F
$$



USA.gov is the U.S. government's official web portal to all federal, state and local government web resources and services.